• In United Kingdom
  • List of Countries
  • For 7 days
  • Water Temperature
  • Satellite Maps
  • Weather Map
  • Weather Widgets
  • user-avatar
    Login

    Hourly Weather Elovka

    Today, 15 August, Wednesday

    Time Temperature Precipitation Wind Pressure Humidity
    00:00 +17°C° 0 mm 2 mps 741 mmHg 93%
    01:00 +17°C° 0 mm 2 mps 741 mmHg 94%
    02:00 +17°C° 0 mm 3 mps 741 mmHg 95%
    03:00 +17°C° 0.1 mm 3 mps 741 mmHg 95%
    04:00 +17°C° 0.1 mm 3 mps 740 mmHg 95%
    05:00 +17°C° 0.1 mm 3 mps 740 mmHg 95%
    06:00 +19°C° 0.3 mm 3 mps 740 mmHg 91%
    07:00 +20°C° 0.3 mm 4 mps 740 mmHg 87%
    08:00 +22°C° 0.3 mm 4 mps 740 mmHg 82%
    09:00 +23°C° 0.5 mm 4 mps 739 mmHg 79%
    10:00 +25°C° 0.5 mm 5 mps 739 mmHg 75%
    11:00 +26°C° 0.5 mm 5 mps 739 mmHg 72%
    12:00 +25°C° 0.9 mm 5 mps 739 mmHg 76%
    13:00 +25°C° 0.9 mm 4 mps 740 mmHg 80%
    14:00 +23°C° 0.9 mm 4 mps 740 mmHg 83%
    15:00 +22°C° 0.5 mm 4 mps 740 mmHg 85%
    16:00 +22°C° 0.5 mm 3 mps 740 mmHg 87%
    17:00 +21°C° 0.5 mm 3 mps 740 mmHg 88%
    18:00 +20°C° 0 mm 3 mps 740 mmHg 91%
    19:00 +20°C° 0 mm 2 mps 740 mmHg 93%
    20:00 +19°C° 0 mm 2 mps 740 mmHg 95%
    21:00 +18°C° 0 mm 2 mps 741 mmHg 96%
    22:00 +18°C° 0 mm 2 mps 741 mmHg 96%
    23:00 +17°C° 0 mm 2 mps 741 mmHg 96%

    Tomorrow, 16 August, Thursday

    Time Temperature Precipitation Wind Pressure Humidity
    00:00 +18°C° 0 mm 1 mps 741 mmHg 96%
    01:00 +18°C° 0 mm 1 mps 741 mmHg 96%
    02:00 +16°C° 0 mm 1 mps 741 mmHg 96%
    03:00 +16°C° 0 mm 1 mps 742 mmHg 96%
    04:00 +16°C° 0 mm 1 mps 742 mmHg 97%
    05:00 +16°C° 0 mm 1 mps 742 mmHg 97%
    06:00 +18°C° 0 mm 1 mps 742 mmHg 92%
    07:00 +20°C° 0 mm 1 mps 742 mmHg 88%
    08:00 +21°C° 0 mm 1 mps 743 mmHg 83%
    09:00 +22°C° 0.5 mm 1 mps 743 mmHg 81%
    10:00 +23°C° 0.5 mm 1 mps 743 mmHg 79%
    11:00 +24°C° 0.5 mm 2 mps 743 mmHg 78%
    12:00 +24°C° 0.8 mm 2 mps 743 mmHg 77%
    13:00 +24°C° 0.8 mm 2 mps 743 mmHg 77%
    14:00 +24°C° 0.8 mm 2 mps 743 mmHg 77%
    15:00 +24°C° 0.5 mm 2 mps 743 mmHg 79%
    16:00 +23°C° 0.5 mm 2 mps 743 mmHg 81%
    17:00 +23°C° 0.5 mm 2 mps 743 mmHg 83%
    18:00 +20°C° 0.1 mm 2 mps 744 mmHg 87%
    19:00 +19°C° 0.1 mm 2 mps 744 mmHg 91%
    20:00 +18°C° 0.1 mm 2 mps 744 mmHg 95%
    21:00 +17°C° 0 mm 2 mps 745 mmHg 95%
    22:00 +16°C° 0 mm 2 mps 745 mmHg 96%
    23:00 +16°C° 0 mm 2 mps 745 mmHg 97%

    Day after tomorrow, 17 August, Friday

    Time Temperature Precipitation Wind Pressure Humidity
    00:00 +15°C° 0 mm 2 mps 745 mmHg 97%
    01:00 +15°C° 0 mm 2 mps 745 mmHg 97%
    02:00 +14°C° 0 mm 2 mps 746 mmHg 97%
    03:00 +14°C° 0 mm 2 mps 746 mmHg 97%
    04:00 +13°C° 0 mm 2 mps 746 mmHg 97%
    05:00 +13°C° 0 mm 2 mps 746 mmHg 97%
    06:00 +14°C° 0 mm 3 mps 746 mmHg 93%
    07:00 +16°C° 0 mm 3 mps 747 mmHg 89%
    08:00 +17°C° 0 mm 3 mps 747 mmHg 84%
    09:00 +19°C° 0 mm 3 mps 747 mmHg 77%
    10:00 +21°C° 0 mm 3 mps 747 mmHg 70%
    11:00 +22°C° 0 mm 3 mps 747 mmHg 63%
    12:00 +24°C° 0 mm 3 mps 747 mmHg 60%
    13:00 +24°C° 0 mm 3 mps 747 mmHg 58%
    14:00 +25°C° 0 mm 3 mps 747 mmHg 56%
    15:00 +25°C° 0 mm 3 mps 747 mmHg 58%
    16:00 +25°C° 0 mm 3 mps 747 mmHg 61%
    17:00 +24°C° 0 mm 2 mps 747 mmHg 63%
    18:00 +21°C° 0 mm 2 mps 747 mmHg 70%
    19:00 +19°C° 0 mm 2 mps 747 mmHg 76%
    20:00 +17°C° 0 mm 2 mps 747 mmHg 83%
    21:00 +16°C° 0 mm 2 mps 747 mmHg 84%
    22:00 +16°C° 0 mm 2 mps 747 mmHg 86%
    23:00 +15°C° 0 mm 2 mps 747 mmHg 87%

    18 August, Saturday

    Time Temperature Precipitation Wind Pressure Humidity
    00:00 +15°C° 0 mm 2 mps 747 mmHg 87%
    01:00 +14°C° 0 mm 2 mps 747 mmHg 88%
    02:00 +14°C° 0 mm 2 mps 748 mmHg 88%
    03:00 +13°C° 0 mm 2 mps 748 mmHg 89%
    04:00 +13°C° 0 mm 2 mps 748 mmHg 89%
    05:00 +13°C° 0 mm 2 mps 748 mmHg 90%
    06:00 +15°C° 0 mm 2 mps 748 mmHg 84%
    07:00 +17°C° 0 mm 2 mps 748 mmHg 77%
    08:00 +19°C° 0 mm 2 mps 748 mmHg 71%
    09:00 +21°C° 0 mm 3 mps 748 mmHg 66%
    10:00 +22°C° 0 mm 3 mps 748 mmHg 60%
    11:00 +25°C° 0 mm 3 mps 748 mmHg 55%
    12:00 +25°C° 0 mm 3 mps 748 mmHg 54%
    13:00 +26°C° 0 mm 3 mps 748 mmHg 52%
    14:00 +26°C° 0 mm 3 mps 748 mmHg 51%
    15:00 +26°C° 0 mm 3 mps 747 mmHg 54%
    16:00 +25°C° 0 mm 3 mps 747 mmHg 57%
    17:00 +25°C° 0 mm 2 mps 747 mmHg 61%
    18:00 +23°C° 0 mm 2 mps 747 mmHg 68%
    19:00 +19°C° 0 mm 2 mps 747 mmHg 75%
    20:00 +17°C° 0 mm 2 mps 747 mmHg 82%
    21:00 +17°C° 0 mm 2 mps 747 mmHg 84%
    22:00 +16°C° 0 mm 2 mps 748 mmHg 86%
    23:00 +16°C° 0 mm 2 mps 748 mmHg 88%

    19 August, Sunday

    Time Temperature Precipitation Wind Pressure Humidity
    00:00 +15°C° 0 mm 2 mps 747 mmHg 88%
    01:00 +15°C° 0 mm 2 mps 747 mmHg 88%
    02:00 +14°C° 0 mm 2 mps 747 mmHg 89%
    03:00 +14°C° 0 mm 2 mps 747 mmHg 88%
    04:00 +13°C° 0 mm 2 mps 747 mmHg 87%
    05:00 +13°C° 0 mm 2 mps 747 mmHg 87%
    06:00 +15°C° 0 mm 2 mps 747 mmHg 80%
    07:00 +17°C° 0 mm 3 mps 747 mmHg 74%
    08:00 +18°C° 0 mm 3 mps 747 mmHg 67%
    09:00 +20°C° 0 mm 3 mps 747 mmHg 63%
    10:00 +22°C° 0 mm 3 mps 746 mmHg 59%
    11:00 +25°C° 0 mm 3 mps 746 mmHg 56%
    12:00 +25°C° 0 mm 3 mps 746 mmHg 55%
    13:00 +26°C° 0 mm 3 mps 746 mmHg 54%
    14:00 +26°C° 0 mm 3 mps 745 mmHg 53%
    15:00 +26°C° 0.1 mm 3 mps 745 mmHg 57%
    16:00 +26°C° 0.1 mm 3 mps 745 mmHg 62%
    17:00 +25°C° 0.1 mm 2 mps 745 mmHg 66%
    18:00 +23°C° 0.2 mm 2 mps 745 mmHg 72%
    19:00 +21°C° 0.2 mm 2 mps 745 mmHg 77%
    20:00 +19°C° 0.2 mm 2 mps 745 mmHg 83%
    21:00 +18°C° 0.2 mm 2 mps 745 mmHg 85%
    22:00 +18°C° 0.2 mm 2 mps 744 mmHg 87%
    23:00 +18°C° 0.2 mm 2 mps 744 mmHg 89%

    20 August, Monday

    Time Temperature Precipitation Wind Pressure Humidity
    00:00 +17°C° 0.3 mm 2 mps 744 mmHg 90%
    01:00 +17°C° 0.3 mm 2 mps 744 mmHg 92%
    02:00 +16°C° 0.3 mm 2 mps 744 mmHg 93%
    03:00 +16°C° 0.2 mm 1 mps 744 mmHg 94%
    04:00 +15°C° 0.2 mm 1 mps 744 mmHg 95%
    05:00 +15°C° 0.2 mm 1 mps 744 mmHg 96%
    06:00 +16°C° 0 mm 1 mps 744 mmHg 93%
    07:00 +18°C° 0 mm 1 mps 744 mmHg 90%
    08:00 +19°C° 0 mm 2 mps 745 mmHg 87%
    09:00 +20°C° 0 mm 2 mps 745 mmHg 79%
    10:00 +21°C° 0 mm 2 mps 745 mmHg 72%
    11:00 +23°C° 0 mm 2 mps 745 mmHg 65%
    12:00 +24°C° 0.1 mm 3 mps 745 mmHg 62%
    13:00 +24°C° 0.1 mm 3 mps 744 mmHg 59%
    14:00 +24°C° 0.1 mm 3 mps 744 mmHg 56%
    15:00 +24°C° 0 mm 3 mps 744 mmHg 58%
    16:00 +22°C° 0 mm 3 mps 744 mmHg 60%
    17:00 +23°C° 0 mm 2 mps 744 mmHg 61%
    18:00 +20°C° 0 mm 2 mps 744 mmHg 66%
    19:00 +18°C° 0 mm 2 mps 745 mmHg 71%
    20:00 +17°C° 0 mm 2 mps 745 mmHg 76%
    21:00 +16°C° 0 mm 2 mps 745 mmHg 77%
    22:00 +16°C° 0 mm 1 mps 745 mmHg 77%
    23:00 +15°C° 0 mm 1 mps 745 mmHg 78%
    Show more